Location: Dodgeville, WI 53533, USA
(43.0344°N, 90.0900°W)
Time: 09:48:44
(UTC-05:00)

PicSat - Visible Passes

Search period start: 20 April 2021 00:00
Search period end: 30 April 2021 00:00
Orbit: 478 x 491 km, 97.4° (Epoch: 19 April)

Date Brightness Start Highest point End Pass type
(mag) Time Alt. Az. Time Alt. Az. Time Alt. Az.
20 Apr ? 22:04:49 13° NE 22:04:49 13° NE 22:05:44 10° NNE visible
20 Apr ? 23:39:10 15° NW 23:39:10 15° NW 23:39:58 10° NNW visible
21 Apr ? 23:14:31 22° NNW 23:14:31 22° NNW 23:15:53 10° NNW visible
22 Apr ? 22:49:51 25° N 22:49:51 25° N 22:51:29 10° N visible
23 Apr ? 22:25:10 20° NNE 22:25:10 20° NNE 22:26:47 10° NNE visible
23 Apr ? 23:59:31 11° NW 23:59:31 11° NW 23:59:48 10° NW visible
24 Apr ? 22:00:29 13° NE 22:00:29 13° NE 22:01:35 10° NNE visible
24 Apr ? 23:34:50 19° NW 23:34:50 19° NW 23:36:04 10° NNW visible
25 Apr ? 23:10:08 27° NNW 23:10:08 27° NNW 23:11:53 10° NNW visible
26 Apr ? 22:45:26 28° NNE 22:45:26 28° NNE 22:47:25 10° N visible
27 Apr ? 22:20:43 21° NE 22:20:43 21° NE 22:22:36 10° NNE visible
27 Apr ? 23:55:04 14° NW 23:55:04 14° NW 23:55:52 10° NW visible
28 Apr ? 21:56:00 13° NE 21:56:00 13° NE 21:57:12 10° NE visible
28 Apr ? 23:30:21 24° NW 23:30:21 24° NW 23:31:59 10° NNW visible
29 Apr ? 23:05:37 34° NNW 23:05:37 34° NNW 23:07:43 10° NNW visible
